Change the Weather History Date:

Thursday, April 7, 2011

  Actual Average Record
Temperature  
Mean Temperature 63 °F 58 °F  
Max Temperature 79 °F 70 °F 91 °F (1967)
Min Temperature 46 °F 46 °F 27 °F (1982)
Degree Days  
Heating Degree Days 2 8  
Month to date heating degree days 67 61  
Since 1 July heating degree days 3239 3057  
Cooling Degree Days 0 1  
Month to date cooling degree days 6 7  
Year to date cooling degree days 19 19  
Growing Degree Days 12 (Base 50)    
Moisture  
Dew Point 40 °F    
Average Humidity 50    
Maximum Humidity 76    
Minimum Humidity 23    
Precipitation  
Precipitation 0.00 in 0.10 in 2.50 in (1899)
Month to date precipitation 0.50 0.74  
Year to date precipitation 7.66 11.58  
Snow  
Snow 0.00 in 0.10 in T in (2007)
Month to date snowfall 0.0 0.1  
Since 1 July snowfall 9.0 6.1  
Snow Depth 0.00 in    
Sea Level Pressure  
Sea Level Pressure 30.05 in    
Wind  
Wind Speed 6 mph (SW)    
Max Wind Speed 15 mph    
Max Gust Speed 18 mph    
Visibility 10 miles    
Events      
T = Trace of Precipitation, MM = Missing Value Source: NWS Daily Summary

Daily Weather History Graph

Daily Weather History Graph

Search for Another Location

Airport or City:

Trip Planner

Search our weather history database for the weather conditions in past years. The results will help you decide how hot, cold, wet, or windy it might be!

Date:

Astronomy

Apr. 07, 2011 Rise Set
Actual Time 6:53 AM EDT 7:41 PM EDT
Civil Twilight 6:27 AM EDT 8:07 PM EDT
Nautical Twilight 5:56 AM EDT 8:38 PM EDT
Astronomical Twilight 5:25 AM EDT 9:10 PM EDT
Moon 8:56 AM EDT (4/7) 11:48 PM EDT (4/7)
Length of Visible Light 13h 40m
Length of Day
12h 48m
Waxing Crescent, 15% of the Moon is Illuminated
Apr 7
Waxing Crescent
Apr 11
First Quarter
Apr 17
Full
Apr 24
Last Quarter
May 3
New

Hourly Weather History & Observations

Time (EDT) Temp. Windchill Dew Point Humidity Pressure Visibility Wind Dir Wind Speed Gust Speed Precip Events Conditions
12:51 AM 55.0 °F - 37.9 °F 53% 30.09 in 10.0 mi SW 12.7 mph - N/A   Mostly Cloudy
1:51 AM 55.0 °F - 39.0 °F 55% 30.08 in 10.0 mi SW 12.7 mph - N/A   Mostly Cloudy
2:51 AM 54.0 °F - 39.0 °F 57% 30.06 in 10.0 mi SW 10.4 mph - N/A   Mostly Cloudy
3:51 AM 51.1 °F - 37.9 °F 61% 30.07 in 10.0 mi SW 6.9 mph - N/A   Mostly Cloudy
4:51 AM 51.1 °F - 37.9 °F 61% 30.07 in 10.0 mi SSW 8.1 mph - N/A   Mostly Cloudy
5:51 AM 48.0 °F - 37.9 °F 68% 30.09 in 10.0 mi SW 4.6 mph - N/A   Partly Cloudy
6:51 AM 46.0 °F 42.5 °F 39.0 °F 76% 30.09 in 10.0 mi WSW 6.9 mph - N/A   Scattered Clouds
7:51 AM 50.0 °F - 41.0 °F 71% 30.10 in 10.0 mi SW 8.1 mph - N/A   Scattered Clouds
8:51 AM 55.9 °F - 42.1 °F 60% 30.11 in 10.0 mi WSW 8.1 mph - N/A   Mostly Cloudy
9:51 AM 60.1 °F - 42.1 °F 51% 30.10 in 10.0 mi WSW 8.1 mph 17.3 mph N/A   Scattered Clouds
10:51 AM 64.9 °F - 44.1 °F 47% 30.09 in 10.0 mi SW 5.8 mph - N/A   Partly Cloudy
11:51 AM 71.1 °F - 42.1 °F 35% 30.09 in 10.0 mi Variable 3.5 mph - N/A   Partly Cloudy
12:51 PM 73.9 °F - 39.0 °F 28% 30.07 in 10.0 mi WNW 8.1 mph - N/A   Partly Cloudy
1:51 PM 75.2 °F - 35.6 °F 24% 30.04 in 10.0 mi West 8.1 mph - N/A   Scattered Clouds
2:51 PM 77.0 °F - 39.2 °F 26% 30.01 in 10.0 mi Calm Calm - N/A   Scattered Clouds
3:51 PM 78.8 °F - 41.0 °F 26% 29.99 in 10.0 mi SSW 10.4 mph 16.1 mph N/A   Scattered Clouds
4:51 PM 78.1 °F - 42.1 °F 28% 29.97 in 10.0 mi SW 11.5 mph - N/A   Mostly Cloudy
5:51 PM 77.0 °F - 39.9 °F 26% 29.98 in 10.0 mi South 5.8 mph - N/A   Scattered Clouds
6:51 PM 75.0 °F - 39.0 °F 27% 29.99 in 10.0 mi SW 8.1 mph - N/A   Partly Cloudy
7:51 PM 71.1 °F - 37.9 °F 30% 30.00 in 10.0 mi South 3.5 mph - N/A   Scattered Clouds
8:51 PM 68.0 °F - 39.0 °F 35% 30.02 in 10.0 mi SSE 3.5 mph - N/A   Scattered Clouds
9:51 PM 63.0 °F - 41.0 °F 45% 30.04 in 10.0 mi SSE 4.6 mph - N/A   Scattered Clouds
10:51 PM 64.9 °F - 42.1 °F 43% 30.04 in 10.0 mi South 4.6 mph - N/A   Mostly Cloudy
11:51 PM 64.9 °F - 43.0 °F 45% 30.03 in 10.0 mi Calm Calm - N/A   Mostly Cloudy